TimeEDT,TemperatureF,Dew PointF,Humidity,Sea Level PressureIn,VisibilityMPH,Wind Direction,Wind SpeedMPH,Gust SpeedMPH,PrecipitationIn,Events,Conditions,WindDirDegrees,DateUTC
12:51 AM,62.1,57.9,86,30.22,10.0,NW,3.5,-,N/A,,Clear,320,2013-07-13 04:51:00
1:51 AM,62.1,59.0,90,30.22,10.0,NNW,4.6,-,N/A,,Mostly Cloudy,330,2013-07-13 05:51:00
2:51 AM,61.0,57.9,90,30.22,10.0,NNW,4.6,-,N/A,,Clear,330,2013-07-13 06:51:00
3:51 AM,60.1,57.9,93,30.24,10.0,Calm,Calm,-,N/A,,Clear,0,2013-07-13 07:51:00
4:51 AM,61.0,59.0,93,30.25,10.0,NNW,3.5,-,N/A,,Partly Cloudy,330,2013-07-13 08:51:00
5:51 AM,61.0,57.9,90,30.26,10.0,NW,3.5,-,N/A,,Clear,310,2013-07-13 09:51:00
6:41 AM,64.4,60.8,88,30.27,10.0,Calm,Calm,-,N/A,,Scattered Clouds,0,2013-07-13 10:41:00
6:51 AM,64.9,60.1,84,30.27,10.0,Calm,Calm,-,N/A,,Scattered Clouds,0,2013-07-13 10:51:00
7:51 AM,69.1,61.0,75,30.29,10.0,Calm,Calm,-,N/A,,Partly Cloudy,0,2013-07-13 11:51:00
8:51 AM,71.1,61.0,70,30.30,10.0,Calm,Calm,-,N/A,,Clear,0,2013-07-13 12:51:00
9:51 AM,73.0,59.0,61,30.30,10.0,ESE,3.5,-,N/A,,Mostly Cloudy,120,2013-07-13 13:51:00
10:51 AM,73.9,59.0,59,30.31,10.0,East,3.5,-,N/A,,Overcast,100,2013-07-13 14:51:00
11:51 AM,73.9,59.0,59,30.31,10.0,East,3.5,-,N/A,,Overcast,80,2013-07-13 15:51:00
12:51 PM,75.9,59.0,56,30.31,10.0,SSE,5.8,-,N/A,,Overcast,160,2013-07-13 16:51:00
1:51 PM,75.9,57.9,54,30.30,10.0,SE,3.5,-,N/A,,Overcast,140,2013-07-13 17:51:00
2:51 PM,78.1,59.0,52,30.30,10.0,Variable,4.6,-,N/A,,Mostly Cloudy,0,2013-07-13 18:51:00
3:51 PM,79.0,61.0,54,30.29,10.0,South,5.8,-,N/A,,Partly Cloudy,180,2013-07-13 19:51:00
4:51 PM,78.1,61.0,56,30.29,10.0,SSE,4.6,-,N/A,,Clear,160,2013-07-13 20:51:00
5:51 PM,78.1,61.0,56,30.27,10.0,Calm,Calm,-,N/A,,Clear,0,2013-07-13 21:51:00
6:51 PM,75.9,61.0,60,30.28,10.0,South,4.6,-,N/A,,Clear,180,2013-07-13 22:51:00
7:51 PM,73.9,60.1,62,30.28,10.0,Calm,Calm,-,N/A,,Scattered Clouds,0,2013-07-13 23:51:00
8:51 PM,71.1,62.1,73,30.29,10.0,Calm,Calm,-,N/A,,Overcast,0,2013-07-14 00:51:00
9:51 PM,69.1,63.0,81,30.29,10.0,Calm,Calm,-,N/A,,Mostly Cloudy,0,2013-07-14 01:51:00
10:51 PM,68.0,63.0,84,30.29,10.0,Calm,Calm,-,N/A,,Scattered Clouds,0,2013-07-14 02:51:00
11:51 PM,66.9,63.0,87,30.29,10.0,Calm,Calm,-,N/A,,Scattered Clouds,0,2013-07-14 03:51:00